Location: Ohmer (historical)
(38.0096°N, 122.0227°W)
Time: 19:35:13
(UTC+00:00)

Cosmos 2227 Rocket - Visible Passes

Search period start: 18 May 2026 00:00
Search period end: 28 May 2026 00:00
Orbit: 837 x 845 km, 71.0° (Epoch: 18 May)

Date Brightness Start Highest point End Pass type
(mag) Time Alt. Az. Time Alt. Az. Time Alt. Az.
18 May 4.1 06:54:02 17° ENE 06:54:02 17° ENE 06:55:55 10° NE visible
18 May 3.1 08:35:48 43° NW 08:35:48 43° NW 08:40:39 10° N visible
19 May 4.1 06:38:41 17° ENE 06:38:41 17° ENE 06:40:27 10° NE visible
19 May 3.0 08:20:26 45° NW 08:20:26 45° NW 08:25:19 10° N visible
20 May 4.1 06:23:16 16° ENE 06:23:16 16° ENE 06:24:57 10° NE visible
20 May 2.9 08:05:01 48° NW 08:05:01 48° NW 08:09:59 10° NNE visible
21 May 4.1 06:07:48 15° ENE 06:07:48 15° ENE 06:09:27 10° NE visible
21 May 2.8 07:49:33 52° NW 07:49:33 52° NW 07:54:39 10° NNE visible
22 May 4.1 05:52:17 15° ENE 05:52:17 15° ENE 05:53:56 10° ENE visible
22 May 2.7 07:34:01 56° NW 07:34:01 56° NW 07:39:18 10° NNE visible
23 May 4.1 05:36:42 15° ENE 05:36:42 15° ENE 05:38:23 10° ENE visible
23 May 2.5 07:18:26 60° WNW 07:18:26 60° WNW 07:23:57 10° NNE visible
24 May 4.0 05:21:01 14° E 05:21:01 14° E 05:22:50 10° ENE visible
24 May 2.4 07:02:45 63° WNW 07:02:58 64° WNW 07:08:37 10° NNE visible
25 May 4.0 05:05:16 14° E 05:05:16 14° E 05:07:14 10° ENE visible
25 May 2.3 06:46:59 63° WSW 06:47:35 68° WNW 06:53:15 10° NNE visible
25 May 4.9 08:32:07 10° NW 08:32:41 10° NW 08:33:17 10° NW visible
26 May 4.0 04:49:24 13° E 04:49:24 13° E 04:51:36 10° ENE visible
26 May 2.3 06:31:06 56° SW 06:32:13 72° WNW 06:37:54 10° NNE visible
26 May 4.9 08:15:53 10° WNW 08:17:16 11° NW 08:18:39 10° NNW visible
27 May 3.9 04:33:22 13° E 04:33:37 13° E 04:35:56 10° ENE visible
27 May 2.2 06:15:04 45° SW 06:16:51 77° WNW 06:22:33 10° NNE visible
27 May 4.9 08:00:00 10° WNW 08:01:51 11° NW 08:03:42 10° NNW visible
